User: anonymous   Login
Location: Unnamed
(53.9021°N, 27.5568°E)
Time: 22:21:17
(UTC+03:00)
Language:

STARLINK-73 - Orbit

View from above orbital plane
View from above orbital plane
View from above satellite
View from above satellite

Ground track
Ground track

The orbit data is extracted from the following two-line orbital elements,

1 44284U 19029BB  20099.58334491  .00031607  00000-0  18235-2 0  9998
2 44284  53.0001 167.2766 0001075  94.9669 247.3069 15.12105264 48510
Epoch (UTC): 08 April 2020 14:00:01
Eccentricity: 0.0001075
inclination: 53.0001°
perigee height: 529 km
apogee height: 530 km
right ascension of ascending node: 167.2766°
argument of perigee: 94.9669°
revolutions per day: 15.12105264
mean anomaly at epoch: 247.3069°
orbit number at epoch: 4851

The dashed part of the orbit path shows where the satellite is in the earth's shadow,  

DLR